Weather History for KPPO - September, 2012

Change the Weather History Date:

Wednesday, September 5, 2012

  Actual Average (KVPZ) Record (KVPZ)
Temperature  
Mean Temperature 70 °F 67 °F  
Max Temperature 79 °F 78 °F 93 °F (1999)
Min Temperature 62 °F 57 °F 45 °F (2003)
Degree Days  
Heating Degree Days 0 1  
Month to date heating degree days 5  
Since 1 July heating degree days 22  
Cooling Degree Days 5 4  
Month to date cooling degree days 20  
Year to date cooling degree days 656  
Growing Degree Days 20 (Base 50)    
Moisture  
Dew Point 64 °F    
Average Humidity 82    
Maximum Humidity 99    
Minimum Humidity 60    
Precipitation  
Precipitation 0.16 in 0.13 in 0.95 in (2014)
Month to date precipitation 0.67  
Year to date precipitation 26.21  
Sea Level Pressure  
Sea Level Pressure 29.85 in    
Wind  
Wind Speed 6 mph ()    
Max Wind Speed 18 mph    
Max Gust Speed 29 mph    
Visibility 9.1 miles    
Events Rain , Thunderstorm    
T = Trace of Precipitation, MM = Missing Value Source: Averaged Metar Reports

Daily Weather History Graph

Daily Weather History Graph

Search for Another Location

Airport or City:

Trip Planner

Search our weather history database for the weather conditions in past years. The results will help you decide how hot, cold, wet, or windy it might be!

Date:

Astronomy

Sep. 05, 2012 Rise Set
Actual Time 6:17 AM CDT 7:12 PM CDT
Civil Twilight 5:49 AM CDT 7:40 PM CDT
Nautical Twilight 5:15 AM CDT 8:14 PM CDT
Astronomical Twilight 4:40 AM CDT 8:49 PM CDT
Moon 9:37 PM CDT (9/5) 11:25 AM CDT (9/5)
Length of Visible Light 13h 51m
Length of Day
12h 54m
Waning Gibbous, 76% of the Moon is Illuminated
Sep 5
Waning Gibbous
Sep 8
Last Quarter
Sep 15
New
Sep 22
First Quarter
Sep 29
Full

Hourly Weather History & Observations

Time (CDT) Temp. Dew Point Humidity Pressure Visibility Wind Dir Wind Speed Gust Speed Precip Events Conditions
12:15 AM 66.6 °F 65.8 °F 98% 29.89 in 7.0 mi Calm Calm - N/A   Clear
12:35 AM 67.8 °F 66.9 °F 97% 29.92 in 10.0 mi NW 13.8 mph 23.0 mph N/A   Scattered Clouds
12:55 AM 69.8 °F 64.8 °F 84% 29.94 in 10.0 mi NNW 17.3 mph 28.8 mph N/A Thunderstorm Mostly Cloudy
1:15 AM 69.4 °F 64.4 °F 84% 29.95 in 10.0 mi NNW 11.5 mph 18.4 mph N/A   Overcast
1:35 AM 69.3 °F 64.0 °F 83% 29.96 in 10.0 mi NW 15.0 mph 20.7 mph N/A Rain , Thunderstorm Light Thunderstorms and Rain
1:55 AM 67.1 °F 64.0 °F 90% 29.94 in 4.0 mi NNW 16.1 mph 20.7 mph 0.13 in Rain Heavy Rain
2:15 AM 66.6 °F 64.4 °F 93% 29.90 in 10.0 mi NE 13.8 mph - 0.01 in Rain Light Rain
2:35 AM 65.8 °F 63.9 °F 93% 29.86 in 10.0 mi East 9.2 mph - 0.01 in   Scattered Clouds
2:55 AM 65.5 °F 64.4 °F 96% 29.84 in 10.0 mi ESE 8.1 mph - 0.01 in   Scattered Clouds
3:15 AM 65.3 °F 64.2 °F 96% 29.83 in 10.0 mi SE 5.8 mph - N/A   Scattered Clouds
3:35 AM 64.8 °F 63.5 °F 96% 29.83 in 10.0 mi SSE 3.5 mph - N/A   Scattered Clouds
3:55 AM 64.4 °F 63.5 °F 97% 29.83 in 10.0 mi Calm Calm - N/A   Clear
4:15 AM 62.6 °F 61.7 °F 97% 29.85 in 7.0 mi Calm Calm - N/A   Scattered Clouds
4:35 AM 64.0 °F 63.3 °F 97% 29.86 in 10.0 mi Calm Calm - N/A   Mostly Cloudy
4:55 AM 64.4 °F 63.9 °F 98% 29.86 in 10.0 mi Calm Calm - N/A   Scattered Clouds
5:15 AM 63.5 °F 62.8 °F 97% 29.86 in 7.0 mi Calm Calm - N/A   Clear
5:35 AM 63.1 °F 62.6 °F 98% 29.87 in 7.0 mi Calm Calm - N/A   Clear
5:55 AM 63.1 °F 62.6 °F 98% 29.87 in 5.0 mi Calm Calm - N/A   Clear
6:15 AM 62.6 °F 61.9 °F 97% 29.87 in 4.0 mi Calm Calm - N/A   Clear
6:35 AM 62.2 °F 61.7 °F 98% 29.88 in 3.0 mi Calm Calm - N/A   Clear
6:55 AM 63.0 °F 62.6 °F 99% 29.88 in 3.0 mi Calm Calm - N/A   Clear
7:15 AM 64.4 °F 63.7 °F 98% 29.88 in 3.0 mi Calm Calm - N/A   Clear
7:35 AM 65.7 °F 65.3 °F 99% 29.88 in 5.0 mi Calm Calm - N/A   Scattered Clouds
7:55 AM 67.5 °F 66.9 °F 98% 29.88 in 10.0 mi Calm Calm - N/A   Mostly Cloudy
8:15 AM 68.0 °F 66.4 °F 95% 29.92 in 10.0 mi WNW 11.5 mph 23.0 mph N/A   Overcast
8:35 AM 67.5 °F 65.3 °F 93% 29.94 in 7.0 mi WNW 8.1 mph 18.4 mph N/A Rain , Thunderstorm Thunderstorms and Rain
8:55 AM 66.6 °F 64.9 °F 95% 29.95 in 7.0 mi NW 18.4 mph 25.3 mph 0.02 in   Overcast
9:15 AM 65.8 °F 63.0 °F 90% 29.94 in 10.0 mi NW 15.0 mph 25.3 mph N/A Rain Light Rain
9:35 AM 66.0 °F 63.7 °F 92% 29.91 in 10.0 mi NNW 8.1 mph - N/A Rain Light Rain
9:55 AM 66.6 °F 62.8 °F 88% 29.89 in 10.0 mi North 4.6 mph - N/A   Mostly Cloudy
10:15 AM 67.6 °F 63.3 °F 86% 29.84 in 7.0 mi NE 6.9 mph - N/A   Scattered Clouds
10:35 AM 70.3 °F 63.9 °F 80% 29.80 in 10.0 mi East 8.1 mph - N/A   Clear
10:55 AM 72.5 °F 63.9 °F 74% 29.80 in 10.0 mi ESE 6.9 mph - N/A   Clear
11:15 AM 73.8 °F 64.4 °F 72% 29.80 in 10.0 mi ESE 8.1 mph - N/A   Clear
11:35 AM 74.1 °F 64.6 °F 72% 29.81 in 10.0 mi ESE 6.9 mph - N/A   Clear
11:55 AM 73.4 °F 63.7 °F 71% 29.81 in 10.0 mi SE 3.5 mph - N/A   Clear
12:15 PM 75.2 °F 64.2 °F 69% 29.81 in 10.0 mi South 5.8 mph - N/A   Clear
12:35 PM 77.0 °F 64.6 °F 65% 29.82 in 10.0 mi SE 5.8 mph - N/A   Clear
12:55 PM 76.6 °F 64.4 °F 66% 29.82 in 10.0 mi South 6.9 mph - N/A   Clear
1:15 PM 78.1 °F 64.9 °F 64% 29.82 in 10.0 mi South 3.5 mph - N/A   Clear
1:35 PM 77.9 °F 64.8 °F 64% 29.82 in 10.0 mi South 8.1 mph - N/A   Clear
1:55 PM 78.1 °F 64.4 °F 63% 29.82 in 10.0 mi South 8.1 mph - N/A   Clear
2:15 PM 77.5 °F 64.8 °F 65% 29.82 in 10.0 mi South 9.2 mph - N/A   Clear
2:35 PM 77.2 °F 65.3 °F 67% 29.82 in 10.0 mi South 8.1 mph - N/A   Clear
2:55 PM 76.1 °F 64.2 °F 67% 29.82 in 10.0 mi South 4.6 mph - N/A   Clear
3:15 PM 76.5 °F 64.8 °F 67% 29.82 in 10.0 mi SSW 5.8 mph - N/A   Clear
3:35 PM 76.8 °F 65.1 °F 67% 29.82 in 10.0 mi SSW 8.1 mph - N/A   Clear
3:55 PM 77.7 °F 65.3 °F 65% 29.82 in 10.0 mi SSW 8.1 mph - N/A   Clear
4:15 PM 78.8 °F 64.6 °F 62% 29.82 in 10.0 mi South 9.2 mph - N/A   Clear
4:35 PM 78.8 °F 64.0 °F 60% 29.82 in 10.0 mi SSW 9.2 mph - N/A   Clear
4:55 PM 77.9 °F 64.4 °F 63% 29.82 in 10.0 mi SSW 6.9 mph - N/A   Clear
5:15 PM 77.5 °F 64.0 °F 63% 29.82 in 10.0 mi SSW 8.1 mph - N/A   Clear
5:35 PM 77.9 °F 63.9 °F 62% 29.82 in 10.0 mi SW 9.2 mph - N/A   Clear
5:55 PM 77.7 °F 63.3 °F 61% 29.82 in 10.0 mi SSW 8.1 mph - N/A   Clear
6:15 PM 76.5 °F 63.3 °F 64% 29.82 in 10.0 mi SSW 8.1 mph - N/A   Clear
6:35 PM 75.6 °F 63.1 °F 65% 29.82 in 10.0 mi SSW 6.9 mph - N/A   Clear
6:55 PM 74.3 °F 63.5 °F 69% 29.82 in 10.0 mi SSW 5.8 mph - N/A   Clear
7:15 PM 72.5 °F 64.0 °F 75% 29.82 in 10.0 mi SSW 4.6 mph - N/A   Clear
7:35 PM 71.6 °F 64.4 °F 78% 29.83 in 10.0 mi SSW 5.8 mph - N/A   Clear
7:55 PM 71.8 °F 63.9 °F 76% 29.83 in 10.0 mi SSW 4.6 mph - N/A   Clear
8:15 PM 70.3 °F 64.4 °F 81% 29.84 in 10.0 mi Calm Calm - N/A   Clear
8:35 PM 70.2 °F 64.4 °F 82% 29.85 in 10.0 mi Calm Calm - N/A   Clear
8:55 PM 69.4 °F 64.2 °F 83% 29.85 in 10.0 mi SSW 3.5 mph - N/A   Clear
9:15 PM 68.2 °F 64.4 °F 88% 29.85 in 10.0 mi Calm Calm - N/A   Clear
9:35 PM 67.6 °F 63.9 °F 88% 29.85 in 10.0 mi SSW 3.5 mph - N/A   Clear
9:55 PM 67.1 °F 63.9 °F 89% 29.85 in 10.0 mi SSW 3.5 mph - N/A   Clear
10:15 PM 67.3 °F 63.7 °F 88% 29.85 in 10.0 mi Calm Calm - N/A   Clear
10:35 PM 67.1 °F 64.2 °F 90% 29.85 in 10.0 mi SSW 3.5 mph - N/A   Scattered Clouds
11:15 PM 67.6 °F 64.6 °F 90% 29.85 in 10.0 mi Calm Calm - N/A   Mostly Cloudy
11:35 PM 66.4 °F 63.7 °F 91% 29.85 in 10.0 mi SW 3.5 mph - N/A   Scattered Clouds
11:55 PM 67.1 °F 64.6 °F 92% 29.85 in 10.0 mi SW 4.6 mph - N/A   Clear